Location: Molveno
(46.1500°N, 10.9667°E)
Time: 08:08:53
(UTC+00:00)

Cosmos 1151 Rocket - Pass Details

Date: 05 July 2020
Orbit: 591 x 617 km, 82.5° (Epoch: 05 August)

Event Time Altitude Azimuth Distance (km) Brightness Sun altitude
Rises 21:55:40 0° 1° (N) 2,879 7.8 -18.5°
Reaches altitude 10° 21:58:14 10° 15° (NNE) 1,965 6.4 -18.7°
Maximum altitude 22:01:52 26° 72° (ENE) 1,214 4.5 -18.9°
Enters shadow 22:03:12 22° 100° (E) 1,336 4.5 -19.0°
